Volver al catálogo

GYEONGGISAT-1

ActivoCienciaSSO
NORAD 66771·PAYLOAD·🇰🇷 South Korea

Lanzado Nov 28, 2025 desde Vandenberg Space Force Base

Loading…

Próximos Pases (próximas 24 horas)

TLE

ActualizadoSource: Space-Track

Época: Sep 14, 2026, 11:25 UTC

1 66771U 25276DK  26257.47606996  .00004536  00000-0  20428-3 0  9995
2 66771  97.4158 330.0913 0000333  16.7054 343.4193 15.21566396 44014

Sigue GYEONGGISAT-1 en tiempo real con AllMySat

Download on the App Store